Temp
27 29 29 29 29 28 29 28 26 27 27 28 27 26 28 29 24 22 24 25 23 24 26 26 25 25 24 22 22 22 22 22 22 21 21 21 21 21 21 21 21 22 21 21 22 21 22 23 24 24 24 24 24 25 25 25 25 25 26 27 27 27 27 26 26 26 26 26 26 27 27 27 27 27 27 27 27 27 27 27 27 28 28 28 28 28 28
26 28 29 29 29 27 27 26 26 27 27 26 25 25 27 29 26 25 26 25 24 26 26 26 26 25 24 22 22 21 22 22 22 21 21 21 21 21 21 21 21 21 21 21 21 21 22 22 23 23 23 23 24 24 23 23 23 24 24 25 25 25 24 23 23 24 24 24 24 25 25 26 26 27 27 27 27 26 26 26 27 27 27 27 27 27 27
24 27 28 29 28 26 24 24 25 26 26 25 25 25 26 26 26 26 26 24 24 26 26 26 26 25 24 22 21 21 22 22 22 22 21 21 21 21 21 21 21 21 21 21 21 21 21 21 21 21 21 21 22 22 22 21 22 22 22 22 22 22 22 22 22 22 22 24 24 24 24 24 25 25 25 26 26 26 26 26 26 26 27 27 27 27 26
22 25 27 27 27 26 23 23 24 24 24 24 24 24 24 24 24 24 24 22 23 25 25 25 25 24 23 21 21 21 21 21 21 21 21 21 21 21 21 21 21 21 21 21 20 20 20 20 20 20 20 20 21 21 21 21 21 21 21 21 21 21 22 23 22 20 21 23 23 24 24 24 24 24 24 24 25 25 25 25 25 26 26 26 26 26 26
21 25 26 25 25 23 21 22 24 24 24 24 23 23 23 23 23 23 22 22 22 23 24 23 22 22 22 21 21 21 20 20 20 20 21 21 21 21 21 21 21 20 20 20 20 20 19 20 20 20 20 20 20 20 21 21 21 21 21 20 20 20 21 22 22 21 21 22 23 22 22 23 23 23 23 24 24 24 24 24 25 25 25 25 25 25 25
21 24 25 24 22 21 21 23 26 25 24 23 22 22 22 22 21 21 22 22 22 22 22 22 21 21 21 21 21 20 20 19 19 20 20 20 21 21 20 20 20 20 20 20 20 20 19 19 19 19 20 20 20 20 20 21 21 21 21 20 20 20 21 21 22 22 22 23 23 22 22 22 23 23 23 23 23 23 24 24 24 24 24 24 25 24 24
21 23 23 22 20 21 23 25 27 26 26 25 23 22 22 21 20 20 21 21 21 21 21 21 21 20 20 20 20 20 19 19 19 20 20 20 20 20 20 20 20 20 20 19 19 19 19 19 19 19 19 19 20 20 20 20 20 20 20 20 19 19 20 20 21 21 21 22 22 22 22 22 22 22 22 22 22 22 23 23 23 23 24 24 24 24 23
22 21 21 20 21 22 24 25 26 26 26 25 23 21 21 21 21 20 20 20 21 21 20 21 21 21 20 20 20 20 20 19 20 20 21 20 20 20 20 19 19 19 19 19 19 19 19 19 19 18 19 19 20 19 19 19 19 19 19 19 19 19 19 19 20 20 20 20 21 21 21 21 21 21 21 21 21 22 22 22 22 22 23 23 23 23 24
21 20 20 21 21 22 23 23 24 25 25 25 23 21 21 22 22 21 20 20 20 20 20 20 21 21 20 19 19 19 20 20 20 20 20 20 20 20 20 19 19 19 19 19 19 19 19 18 18 18 19 19 19 19 18 18 18 18 18 18 18 18 18 18 19 19 19 20 20 20 20 20 20 20 20 21 21 21 21 21 21 21 22 21 21 22 22
21 20 20 20 20 20 21 21 23 24 24 24 24 22 21 21 22 21 20 20 20 20 20 20 21 22 21 19 19 19 19 19 19 20 19 19 20 20 20 20 19 19 19 19 18 18 18 18 17 17 18 18 18 18 17 17 17 17 17 17 17 17 18 18 18 18 18 19 19 19 19 20 20 20 20 20 20 20 20 20 20 20 20 21 20 20 20
20 20 19 19 19 20 20 21 22 24 23 22 23 22 20 21 22 22 21 20 20 20 20 20 22 22 21 19 19 19 19 19 19 19 19 19 19 19 19 19 19 19 19 19 18 18 18 17 17 17 17 17 17 16 16 17 17 17 16 16 17 17 17 18 18 18 18 18 18 18 19 19 19 20 20 20 19 19 19 19 19 20 20 20 20 19 19
21 20 20 20 20 20 21 21 23 23 23 22 22 21 20 21 23 22 21 20 19 20 20 20 21 22 20 19 19 19 19 19 20 20 20 19 20 20 19 19 19 19 19 19 19 18 18 18 18 18 17 17 17 16 16 16 16 16 16 17 17 17 17 18 18 18 18 18 18 18 18 18 19 19 19 19 19 19 19 19 19 19 20 20 19 18 18
21 20 20 20 20 21 22 22 23 24 23 21 20 20 21 23 23 23 22 21 20 20 20 20 20 20 20 20 20 20 20 20 20 20 20 20 20 20 19 19 19 19 19 19 19 19 19 19 18 18 18 17 17 17 17 17 16 17 17 17 17 17 18 18 18 18 18 18 18 18 18 18 18 18 18 18 19 19 19 19 19 19 19 19 19 18 17
20 20 20 20 20 21 22 22 23 24 22 20 20 22 23 24 23 23 23 22 22 21 21 21 20 20 21 21 21 21 21 20 20 21 21 21 20 20 20 20 20 20 19 20 20 20 19 19 19 19 18 18 17 17 17 17 17 17 17 17 18 18 18 18 18 18 18 18 18 18 18 18 18 18 18 18 19 19 19 19 19 19 19 19 19 18 17
20 20 20 20 20 21 23 23 23 23 22 22 22 23 24 24 23 23 23 23 23 22 21 21 21 21 22 22 22 23 22 21 22 21 21 21 21 20 20 20 20 20 20 20 20 20 19 19 19 19 18 18 18 18 17 17 17 17 17 17 17 18 18 18 18 18 18 18 18 18 18 19 19 19 19 19 19 19 19 19 19 19 18 19 18 18 17
21 20 20 20 21 22 24 24 23 23 23 24 24 23 23 23 23 23 23 23 23 23 22 22 22 22 22 23 23 23 23 22 22 21 21 21 21 21 21 21 21 21 20 20 20 19 19 19 19 18 18 18 18 18 18 18 18 18 18 18 18 18 18 18 18 18 18 18 18 18 18 19 19 19 19 19 19 19 19 19 19 19 18 18 18 18 17
22 21 21 22 23 23 24 23 23 24 24 24 24 23 23 23 23 23 23 22 22 23 23 23 23 23 23 23 24 24 23 23 23 22 22 21 21 22 22 22 21 21 20 20 19 19 19 18 18 18 18 18 18 18 18 18 18 18 18 18 18 18 18 18 18 18 18 19 19 19 19 19 19 19 19 19 19 19 19 19 19 19 18 18 18 18 17
22 22 22 23 23 23 23 23 23 24 24 24 24 23 23 23 23 23 23 22 22 22 22 22 22 23 23 23 24 24 23 23 22 22 22 22 22 22 22 22 21 21 20 20 19 18 18 18 18 18 18 18 18 18 17 18 18 18 18 18 18 18 18 18 18 18 19 19 19 19 19 19 19 19 19 19 19 19 19 19 18 18 18 18 18 18 17
22 22 22 23 23 23 23 23 23 23 23 24 24 23 23 23 23 23 23 22 22 22 21 21 22 22 23 23 23 23 23 23 22 22 22 22 22 22 22 22 21 21 20 20 19 19 18 18 18 18 18 18 18 18 18 18 18 18 18 18 18 18 19 19 19 19 19 19 19 19 18 18 18 18 18 18 19 19 19 18 18 18 17 17 18 17 17
22 22 22 23 23 23 23 23 23 23 23 23 24 24 23 23 23 23 23 23 23 22 22 21 22 22 22 23 23 23 22 22 21 21 22 22 22 22 22 22 21 21 21 20 20 19 19 18 18 18 18 18 18 18 18 18 18 18 18 18 19 19 19 19 19 19 19 19 19 18 18 18 18 18 18 18 18 18 18 17 17 18 17 17 17 16 16
22 22 23 23 23 22 23 23 23 23 23 23 23 24 23 23 23 23 23 23 23 23 22 22 22 22 22 22 22 22 22 21 21 21 21 22 22 22 21 21 21 21 20 20 19 19 19 18 18 18 18 18 18 18 18 18 18 18 18 19 19 19 19 19 19 19 19 19 18 18 18 18 18 17 17 17 18 18 18 18 18 17 17 17 17 16 17
21 22 23 23 22 21 22 23 23 23 23 23 23 23 23 23 23 23 23 23 22 22 22 22 22 22 21 21 21 21 21 21 21 21 21 22 22 21 21 21 21 21 20 20 19 19 18 18 18 18 18 18 18 18 18 18 18 18 18 19 19 19 19 19 18 18 19 18 18 17 17 17 17 17 17 17 17 17 18 18 18 18 18 18 17 17 17
22 23 23 23 22 22 22 23 23 23 23 23 22 22 23 22 22 22 22 22 22 22 22 22 22 21 21 20 20 20 20 21 21 22 21 21 22 21 21 21 21 20 20 20 19 19 18 18 18 18 18 18 18 18 18 18 18 18 18 18 19 19 19 19 18 18 18 18 18 17 17 17 17 17 17 17 17 17 17 17 17 17 17 17 17 17 17
23 23 23 23 22 22 22 23 23 22 22 22 22 22 22 22 21 21 21 21 22 21 21 21 22 21 21 20 20 20 20 21 21 21 21 21 21 21 21 21 20 20 20 19 19 19 18 18 18 18 18 18 18 18 18 18 18 18 18 18 18 18 18 18 18 17 17 17 17 17 17 17 17 17 17 17 16 17 16 16 17 17 16 16 17 17 17
23 23 23 23 22 22 23 23 22 22 21 21 21 21 21 21 21 21 21 21 21 21 21 20 21 21 21 20 20 20 20 21 20 20 21 21 21 21 21 20 20 20 20 19 19 19 18 18 18 18 18 18 18 18 18 17 17 17 17 18 18 18 18 18 17 17 17 17 17 17 17 17 17 17 17 17 17 17 16 16 16 16 16 16 16 16 16
23 23 23 23 23 23 22 22 22 22 21 21 21 20 21 21 22 22 21 21 21 21 20 20 20 21 21 21 21 21 20 20 20 20 20 20 20 20 20 20 20 20 20 19 19 18 18 18 18 18 19 18 18 18 18 17 17 17 17 17 17 17 17 17 17 17 17 17 17 17 17 17 17 17 17 17 17 17 17 16 16 16 15 15 15 15 15
23 23 23 22 22 22 22 22 22 21 21 21 20 20 21 22 22 21 21 21 21 21 20 20 20 21 21 21 21 21 21 21 20 20 20 20 20 20 20 20 20 20 19 19 19 18 18 19 18 19 19 18 18 18 17 17 17 17 17 17 17 17 17 17 17 17 17 16 16 16 16 16 16 16 16 17 17 17 17 17 17 16 16 15 15 15 15
23 23 23 22 22 21 21 22 21 21 21 21 21 21 21 22 21 21 20 20 20 20 20 20 20 20 20 20 20 20 20 20 20 20 20 20 20 19 19 20 19 19 19 19 19 19 19 19 19 19 18 18 18 18 17 17 17 17 16 17 17 17 17 17 17 16 16 16 16 16 16 16 16 16 16 17 17 17 17 17 17 17 16 15 15 14 14
23 22 22 22 21 21 21 21 21 21 21 22 22 22 21 21 22 21 20 20 19 19 19 20 20 20 19 19 19 19 19 19 19 19 19 19 19 19 19 19 19 19 19 19 19 19 19 18 19 19 18 18 18 18 17 17 17 16 16 16 16 16 17 16 16 16 16 16 16 16 16 16 16 16 16 16 17 17 17 17 17 17 16 16 15 14 14
22 22 21 21 21 21 21 21 21 21 21 21 21 21 21 21 21 21 20 20 19 19 19 20 20 19 19 19 19 19 19 19 19 19 19 19 19 19 18 19 19 18 18 18 18 18 18 18 18 18 18 18 18 17 17 17 17 16 16 16 16 16 16 16 16 16 16 15 15 15 16 16 16 16 16 16 17 17 17 17 17 17 16 16 16 15 14
22 22 21 21 22 21 21 21 21 21 21 21 21 21 21 21 21 20 20 20 19 19 19 19 19 19 18 19 18 19 19 19 19 19 18 18 18 18 18 18 18 18 18 18 18 17 17 17 17 17 17 17 17 17 17 17 17 16 16 16 16 16 16 16 16 16 15 15 15 15 15 16 16 16 16 16 17 17 17 17 17 17 16 16 15 14 14
22 21 21 22 22 21 21 21 21 21 21 21 21 21 20 20 20 20 20 19 19 19 19 19 18 18 18 18 18 18 18 18 18 18 18 18 18 18 18 18 18 18 18 17 17 17 17 17 17 17 17 17 17 17 17 17 17 16 16 16 16 16 16 16 16 16 15 15 15 16 16 16 16 16 16 16 16 16 16 16 16 16 16 15 14 14 14
21 21 21 21 21 21 20 21 21 21 21 20 20 19 19 19 19 19 19 19 19 19 19 18 18 18 18 18 18 18 18 18 18 18 18 18 18 18 18 18 18 18 17 17 17 17 17 17 17 17 17 17 17 17 16 16 16 16 16 16 16 16 16 16 16 16 16 15 15 16 16 16 16 16 16 16 16 16 16 16 16 16 15 15 14 14 14
21 21 21 21 21 21 20 20 21 20 20 20 19 19 19 20 20 19 19 19 19 18 18 18 18 18 18 18 18 18 18 18 17 18 18 18 18 18 18 18 18 17 17 17 17 17 16 16 16 16 16 16 16 16 16 16 16 16 16 16 16 16 16 16 16 16 16 15 15 15 16 16 16 16 16 16 16 16 16 16 16 15 15 14 14 14 14
21 21 21 21 21 21 20 20 20 20 20 20 20 19 19 20 19 19 18 18 18 18 18 18 18 18 18 17 17 17 17 17 17 17 17 17 17 17 17 17 17 17 17 17 17 17 17 16 16 16 16 16 16 16 15 15 15 15 15 16 16 15 16 16 16 16 16 15 15 16 16 16 16 16 15 15 15 15 15 15 15 15 15 14 14 14 14
21 20 20 20 21 21 20 19 20 20 19 19 19 19 19 19 19 18 18 18 18 18 17 17 17 17 17 17 17 16 16 16 16 16 16 16 16 16 16 16 16 16 16 16 16 16 16 16 16 16 16 16 16 16 15 15 15 15 15 15 15 15 15 15 15 16 16 15 15 16 16 15 15 15 15 15 15 15 15 15 15 15 14 14 14 13 13
21 20 19 19 19 19 19 19 19 19 18 18 18 18 18 18 18 18 17 17 17 16 16 16 16 16 16 16 16 16 16 16 16 16 16 16 16 16 16 16 16 16 16 16 16 16 16 16 16 16 16 16 16 15 15 15 15 15 15 14 14 14 14 14 14 14 15 15 15 16 15 15 15 15 15 15 15 15 15 15 14 14 14 13 13 13 13
20 19 19 19 18 18 18 18 18 18 18 17 17 17 17 16 16 17 16 16 16 15 15 15 15 15 15 15 15 15 15 15 15 15 15 15 15 15 15 15 15 15 15 15 16 16 16 16 16 16 16 15 15 15 15 15 14 14 13 13 13 13 13 14 14 14 14 15 15 15 15 15 15 15 15 14 14 14 14 14 14 13 13 13 12 12 12
19 19 18 18 18 18 18 17 17 17 17 16 16 16 16 16 16 16 15 15 14 14 14 14 14 14 14 13 13 14 13 13 13 13 13 13 13 14 14 14 14 15 15 15 15 15 15 15 15 15 15 15 15 15 15 14 14 13 13 13 12 12 12 12 13 13 14 14 15 15 15 14 14 14 14 14 14 14 13 13 13 12 12 12 12 12 12
18 18 18 18 18 18 18 17 16 16 16 16 15 15 15 15 15 15 14 13 13 13 13 13 13 12 12 12 12 12 12 12 12 12 12 12 13 13 13 13 14 14 14 14 14 14 14 14 14 14 14 14 14 14 14 14 13 13 12 12 13 13 12 12 12 12 12 13 14 14 14 14 14 14 14 13 13 13 13 12 12 12 12 11 11 11 11
18 18 18 18 18 18 17 16 15 15 15 15 15 14 14 14 14 14 13 13 12 12 12 12 12 11 11 11 11 11 11 11 11 12 12 12 12 12 12 12 13 13 13 13 13 13 13 13 13 13 14 14 14 14 13 13 13 13 12 12 12 12 12 12 12 12 12 12 12 13 14 14 14 14 14 13 13 13 13 12 12 11 11 11 11 10 10
18 18 17 16 16 16 16 15 15 15 14 14 14 14 13 13 13 13 12 12 12 12 11 11 11 11 11 11 11 11 11 11 11 11 11 11 11 11 11 11 12 12 12 12 12 13 13 13 13 13 13 13 13 13 13 12 12 12 11 11 11 11 12 12 12 11 11 11 11 11 12 13 13 13 13 13 12 12 12 12 12 11 11 11 10 10 10
18 17 16 16 16 16 16 15 15 14 14 13 13 13 13 12 12 12 12 12 11 11 11 11 11 11 10 10 10 10 10 10 10 10 10 11 11 11 10 10 11 11 11 12 12 12 12 12 12 12 12 12 12 12 12 11 11 11 11 11 11 11 11 11 11 11 11 11 11 10 11 11 12 12 12 11 11 11 11 11 11 11 11 10 10 9 9
17 16 16 15 15 15 15 15 15 14 13 13 13 13 12 12 12 11 11 11 11 11 11 10 10 10 10 10 10 10 10 10 10 9 9 10 10 10 10 10 10 10 10 11 11 11 11 11 11 11 11 11 11 11 11 11 11 11 11 11 11 11 11 11 11 11 11 11 10 10 10 10 11 11 11 11 11 11 10 10 10 10 10 9 9 9 8
17 16 16 15 15 15 15 15 14 13 13 13 12 12 12 12 11 11 11 11 11 11 10 10 10 10 10 10 10 10 9 9 9 8 8 9 9 8 8 9 9 9 9 9 10 10 9 10 10 10 10 10 11 11 10 10 10 10 10 10 10 10 10 10 10 10 10 10 10 10 10 10 10 10 11 10 10 10 10 10 9 9 8 8 8 7 7
16 16 16 15 15 14 14 14 13 13 13 12 12 12 12 11 11 11 11 11 11 11 10 10 10 10 9 9 9 9 9 9 8 8 8 8 8 7 7 8 9 9 8 9 9 8 8 8 9 9 9 10 10 10 10 10 10 10 10 10 10 10 10 10 10 10 10 10 10 10 10 10 10 10 10 10 9 9 9 9 8 8 8 7 7 7 6
15 15 15 15 14 14 13 13 13 13 13 12 11 11 11 11 11 11 11 11 11 11 11 10 10 9 9 9 8 8 8 8 8 7 7 7 7 7 7 7 7 8 8 8 8 8 8 8 8 8 9 9 9 9 9 9 9 9 9 9 9 9 9 9 10 10 10 10 10 10 9 9 9 9 8 8 8 8 8 8 7 7 7 7 6 6 6
15 15 15 14 14 13 13 13 13 13 13 12 12 11 11 11 11 11 11 11 11 11 11 10 10 9 9 9 8 8 7 8 7 7 7 7 7 6 6 6 7 7 7 7 7 7 7 7 7 8 8 8 8 8 8 9 9 9 8 8 8 9 9 9 9 9 9 9 9 9 8 8 8 8 8 8 7 7 7 7 7 7 6 6 6 6 6
15 15 15 14 14 13 13 13 13 13 13 12 12 12 11 11 11 12 12 12 12 12 11 10 10 9 9 9 9 8 7 7 7 6 6 6 6 6 6 6 6 6 7 7 7 6 6 7 7 7 7 7 7 7 7 8 8 8 8 8 8 8 8 8 8 8 8 8 8 8 8 8 7 7 7 7 7 6 6 6 6 6 6 6 6 6 5
15 15 15 14 14 13 13 13 13 13 13 12 12 12 12 11 12 12 12 12 12 12 11 10 10 10 9 9 9 8 8 7 7 7 7 7 7 7 6 6 6 6 6 6 6 6 6 6 6 6 6 7 7 6 6 7 7 7 7 8 7 7 7 8 8 8 7 7 7 7 7 7 7 7 6 6 6 6 6 6 6 5 5 5 5 5 5
15 14 14 14 14 14 14 13 13 13 13 12 12 12 12 12 12 12 13 13 13 13 12 11 10 10 10 9 9 9 8 8 7 7 7 7 7 7 7 7 7 6 6 6 6 6 6 6 6 6 6 6 6 6 6 6 7 7 7 7 7 7 7 7 7 7 7 7 7 7 7 6 6 6 6 6 6 5 5 5 5 5 5 5 5 5 5
15 15 15 14 14 14 14 14 13 13 13 13 12 12 12 12 12 13 13 13 13 13 13 12 11 10 10 10 9 9 9 9 8 8 8 8 8 8 7 7 7 7 7 7 7 7 6 6 6 6 6 6 6 6 6 6 7 7 7 7 7 7 7 7 7 6 6 6 6 6 6 6 6 6 6 5 5 5 5 5 5 5 5 5 5 5 5
Height
774 770 769 766 767 767 764 768 772 768 762 758 757 759 752 748 767 788 782 777 787 786 777 777 778 779 785 788 785 784 784 785 787 787 788 793 800 802 799 798 797 795 796 795 796 797 797 799 802 804 808 811 811 813 815 816 818 819 820 821 822 825 827 829 831 834 836 838 839 841 842 842 843 843 844 844 844 845 845 846 846 847 847 848 849 849 850
775 771 769 766 768 771 771 773 775 771 768 769 769 767 758 752 762 772 774 779 782 777 774 775 774 776 782 785 785 783 784 785 786 788 790 793 798 802 801 801 801 801 803 804 804 804 803 804 804 805 806 808 810 812 815 817 819 821 821 821 822 824 827 831 835 837 838 838 839 840 841 842 842 843 843 843 843 843 844 844 845 845 846 846 847 848 849
785 774 769 768 770 776 779 780 777 772 772 776 778 776 768 766 772 775 777 785 786 777 773 775 774 775 780 787 789 787 785 785 786 789 791 792 795 798 799 801 802 802 803 806 809 810 810 810 810 809 810 811 811 813 816 819 821 822 823 821 822 824 827 831 835 838 839 838 838 839 839 840 841 842 843 843 842 843 843 843 844 844 845 845 845 846 847
798 778 771 774 771 774 785 788 784 781 783 787 789 787 782 781 785 785 788 795 795 784 778 779 781 781 785 791 792 791 790 788 788 791 792 793 795 797 798 799 801 802 803 805 808 810 812 814 814 815 815 816 815 814 816 819 821 823 823 822 823 825 827 829 832 837 839 838 837 837 838 838 839 839 841 842 842 842 842 842 843 843 843 843 843 844 845
803 782 776 777 775 787 804 800 790 789 791 791 794 794 791 789 790 796 801 802 796 788 784 787 791 792 793 794 794 795 795 793 793 795 794 794 795 796 797 798 799 801 803 805 808 809 811 814 816 816 816 817 818 816 816 818 819 821 822 823 825 828 829 830 832 835 837 836 836 836 837 837 837 838 839 840 840 841 841 841 841 841 842 842 842 842 843
805 789 778 782 797 817 820 798 783 787 791 794 800 802 800 799 800 802 802 798 794 792 791 793 797 798 798 797 796 797 797 798 798 798 798 798 798 797 798 798 799 802 804 807 809 810 812 815 816 816 816 816 817 817 817 817 818 819 821 824 827 829 830 831 831 832 833 833 834 835 835 836 837 837 837 838 839 839 839 838 839 839 840 841 840 841 841
803 794 791 808 827 826 807 787 781 783 785 788 797 803 802 804 809 807 802 799 798 798 798 798 799 801 800 799 799 799 800 801 800 799 800 801 801 801 801 800 801 802 804 807 809 811 813 814 815 816 816 816 816 817 817 818 819 820 822 823 826 828 829 829 829 830 831 831 832 832 833 834 834 835 835 836 837 837 836 837 837 837 838 839 838 839 840
804 808 814 826 827 810 793 789 786 784 784 788 797 808 808 804 808 808 803 801 800 799 800 799 799 802 802 802 803 801 801 803 802 802 803 803 803 805 804 804 805 805 805 806 808 810 812 813 814 815 815 816 817 818 819 820 821 822 823 824 825 826 827 828 828 829 829 829 830 831 831 832 832 833 833 834 834 835 835 835 836 835 835 836 836 837 839
812 821 825 821 816 811 805 802 796 791 793 793 799 814 815 804 801 804 801 801 802 802 802 800 797 798 803 809 811 805 801 803 804 805 806 806 806 805 805 807 809 809 809 809 810 812 813 814 815 815 815 815 816 818 820 821 821 822 823 824 825 826 826 827 828 828 829 829 829 830 830 831 831 832 832 833 833 834 834 834 834 834 834 835 836 837 838
814 823 831 831 831 829 818 808 799 791 793 793 793 808 816 806 799 800 800 801 803 803 804 802 796 795 805 818 820 811 807 808 807 808 810 811 811 810 809 809 810 811 813 813 814 816 817 818 818 818 817 817 817 818 820 821 822 823 823 824 825 825 826 827 828 828 829 829 829 830 830 831 831 832 832 833 833 833 833 833 833 833 833 834 835 836 837
814 823 835 840 839 831 818 808 798 791 794 793 791 810 825 812 798 798 800 802 803 803 803 801 796 797 812 823 819 811 812 813 811 812 813 813 816 818 815 813 813 815 817 818 820 821 821 821 822 822 822 822 821 822 824 824 825 825 825 826 826 826 827 828 829 829 829 829 830 830 831 831 832 832 832 832 832 832 832 832 832 832 832 832 833 834 834
810 817 828 832 830 822 811 804 798 792 791 792 804 829 834 812 798 799 800 802 804 802 802 802 799 803 814 820 815 811 812 813 813 814 814 815 819 822 819 818 819 820 821 823 824 825 826 826 826 827 827 826 825 826 826 827 828 828 829 829 828 829 829 829 830 830 830 830 830 830 831 832 832 833 833 833 832 832 832 832 831 831 830 830 831 832 832
812 816 823 826 824 815 804 801 796 789 792 806 825 835 822 803 799 799 797 800 803 801 802 804 805 807 809 810 810 810 812 814 815 816 817 818 820 822 822 822 823 823 825 826 827 828 829 829 829 830 830 829 828 828 829 830 831 831 832 832 831 831 831 831 831 831 831 832 832 831 831 832 833 834 834 834 834 833 833 832 831 831 830 830 831 832 833
818 817 819 824 823 809 797 797 791 787 802 822 825 812 800 796 799 796 794 797 799 799 801 803 806 808 807 806 808 810 812 814 816 817 819 819 821 823 823 824 825 826 827 828 829 830 830 831 831 831 832 831 831 831 832 833 833 833 834 834 834 834 833 833 833 833 833 833 833 832 832 833 833 834 835 835 835 834 834 833 831 831 831 831 832 832 833
816 817 819 828 828 808 792 793 794 794 805 814 806 796 796 797 796 795 797 798 798 800 803 804 805 807 808 808 808 808 811 813 815 817 819 820 822 823 824 825 826 826 828 829 830 831 831 832 832 832 833 833 833 834 835 835 835 835 835 835 835 835 835 835 835 834 834 834 834 834 834 834 834 835 835 835 835 835 834 833 832 832 832 832 833 833 834
810 820 822 821 815 800 788 792 798 798 797 796 794 796 799 797 796 799 800 799 799 801 803 805 806 807 808 808 808 808 810 812 813 817 819 820 822 823 823 825 826 827 829 830 830 832 833 833 833 834 834 834 834 835 835 835 836 836 836 836 836 836 836 836 836 836 835 835 835 835 835 835 836 836 836 836 835 835 834 834 834 834 834 834 834 834 835
801 809 810 803 797 793 789 790 794 794 792 791 792 796 798 798 799 799 801 803 803 802 803 805 806 807 807 808 807 808 809 811 812 815 817 819 821 822 823 825 826 828 829 830 831 833 833 833 834 834 834 834 835 835 835 836 836 836 836 837 837 837 837 837 837 837 837 836 836 835 835 836 836 836 836 836 836 836 835 835 835 835 835 835 835 836 836
796 798 798 795 794 795 793 791 792 792 793 793 793 796 799 800 799 799 801 804 804 803 805 806 807 808 808 808 808 808 809 811 813 815 817 818 820 821 823 825 827 828 830 831 832 833 833 834 834 834 834 835 835 835 836 836 836 836 837 837 837 838 838 838 838 837 837 837 837 836 836 837 836 836 836 836 836 836 836 836 836 836 836 837 837 837 838
802 805 801 795 796 798 795 795 795 794 795 796 796 798 800 799 800 801 801 802 804 805 806 807 808 809 808 809 810 810 810 812 813 814 817 818 820 822 823 824 826 828 829 831 832 833 834 835 835 835 836 836 836 836 837 837 837 837 837 837 838 838 838 838 838 838 838 838 837 837 837 837 837 836 836 836 837 837 837 837 837 837 837 838 838 839 839
800 804 799 794 796 797 795 797 799 798 799 799 798 799 800 800 801 801 801 802 804 805 806 808 809 810 810 810 811 812 812 814 814 815 818 819 820 822 824 824 826 827 829 831 832 833 834 835 836 836 836 836 837 837 837 838 838 838 838 838 838 838 838 839 839 839 839 838 838 838 838 838 838 838 838 838 838 838 839 839 838 838 839 839 840 840 841
799 800 797 795 799 801 799 799 800 799 800 801 800 801 802 802 803 803 803 804 804 805 807 808 809 811 812 811 811 813 814 815 816 818 819 820 821 823 824 825 826 827 829 831 832 834 835 835 836 837 837 837 838 838 838 838 838 838 839 839 839 839 839 839 839 839 839 839 839 839 839 838 839 839 839 840 840 840 840 840 840 840 840 840 840 841 841
805 800 795 795 802 807 805 801 801 800 800 801 803 804 804 805 806 806 807 807 807 806 807 808 810 812 813 812 813 815 816 817 818 820 821 822 823 824 825 826 827 828 830 832 833 834 835 835 836 837 837 837 838 838 838 838 838 838 838 838 839 839 839 839 840 840 839 840 840 840 839 839 839 840 840 841 841 841 841 840 840 840 840 840 840 841 841
800 794 791 792 797 803 803 800 800 801 801 803 805 806 807 808 808 808 809 810 810 810 810 811 812 813 814 815 816 816 817 819 820 821 822 823 824 825 826 827 828 829 831 832 833 834 835 836 837 837 837 838 838 838 838 838 838 838 838 838 839 839 839 839 840 840 840 840 840 840 840 840 840 840 840 841 841 841 841 841 841 840 840 840 840 841 841
791 790 790 791 794 799 800 799 800 801 801 804 807 808 808 809 809 810 811 812 812 813 814 813 814 815 815 817 818 818 820 821 821 822 824 824 824 826 826 827 828 830 831 832 834 835 835 836 837 837 838 838 838 838 838 838 838 838 838 838 839 839 839 840 840 840 840 840 840 840 840 840 840 840 840 841 841 842 842 842 841 841 841 841 841 841 841
789 790 789 789 793 796 797 798 800 802 802 804 807 809 810 810 811 812 813 813 814 815 816 816 817 817 817 818 819 820 821 822 823 824 824 824 825 826 827 828 829 830 831 832 834 834 835 836 836 837 837 838 838 838 838 838 838 838 838 838 838 838 839 839 840 840 840 840 840 841 841 840 841 841 840 841 841 841 842 842 842 842 842 842 841 841 841
785 787 788 791 794 795 797 800 802 803 804 806 808 810 811 811 812 813 814 815 816 816 817 819 819 819 820 820 821 821 822 823 824 824 824 825 827 827 828 829 829 829 831 832 833 834 835 835 836 836 836 837 837 837 837 838 838 838 838 838 838 838 838 839 840 840 840 840 840 840 840 841 841 841 841 841 841 841 841 842 842 842 842 842 842 842 842
784 786 788 794 798 798 799 801 803 803 804 806 809 810 811 812 813 814 815 816 817 818 819 820 821 821 822 822 822 823 824 824 825 825 826 826 827 828 829 829 829 830 831 831 832 833 834 835 835 836 836 836 836 836 837 837 838 838 838 838 838 838 838 839 840 840 840 840 840 840 840 840 840 841 841 841 841 841 841 841 841 842 842 843 843 843 843
786 786 788 793 798 800 799 799 801 803 804 806 808 810 811 812 812 814 816 817 818 819 820 821 822 823 823 824 824 825 825 825 826 826 827 827 828 828 828 829 829 830 831 831 832 833 833 834 835 835 835 836 836 836 837 837 837 838 837 837 838 838 838 839 839 840 840 840 839 839 839 839 840 840 840 840 841 841 841 841 841 841 842 843 843 843 844
789 789 789 791 793 796 798 799 802 804 805 807 808 809 810 812 812 814 816 817 818 820 821 822 823 824 824 825 826 826 827 827 827 828 828 828 829 829 829 829 830 830 831 831 832 832 833 834 834 835 835 835 836 836 837 837 837 838 837 837 838 838 838 839 839 839 839 840 839 839 839 839 839 839 839 840 840 840 841 841 841 841 842 842 842 843 844
790 790 792 793 793 796 799 802 804 805 806 808 808 809 810 811 813 814 815 816 818 820 821 822 823 824 825 827 827 828 828 829 829 829 829 829 829 829 829 830 830 830 831 832 832 832 833 833 834 835 836 835 835 836 836 836 837 837 837 838 838 837 837 838 839 839 839 840 840 839 839 839 839 839 839 840 840 840 841 841 841 841 841 841 842 843 844
791 792 793 795 796 798 800 802 804 805 806 807 809 810 811 812 814 815 816 816 818 820 821 822 823 825 826 827 828 828 829 829 829 830 830 830 830 830 830 830 831 831 831 831 832 832 832 832 833 834 835 835 835 835 835 835 836 836 837 837 837 837 837 837 838 839 839 839 839 839 839 839 839 839 839 839 840 840 841 841 841 841 841 841 842 843 844
792 794 795 797 798 799 802 803 804 806 807 808 809 811 811 812 814 815 816 817 818 820 821 822 824 825 826 828 828 829 829 829 830 830 830 830 830 830 830 830 831 831 831 831 831 831 831 832 832 832 833 834 835 834 834 834 835 835 836 836 836 836 836 836 837 838 838 838 839 839 839 838 838 838 839 839 839 840 840 841 841 841 841 841 842 843 844
794 797 798 799 799 801 803 804 805 806 807 808 809 811 812 812 813 815 816 817 818 820 821 823 824 826 827 828 828 829 829 829 830 830 830 830 830 830 830 830 830 830 831 830 830 830 831 831 831 831 832 832 833 833 834 834 833 834 835 835 835 835 835 835 836 836 836 837 838 837 838 838 838 838 838 838 838 839 840 840 841 841 841 842 842 843 844
792 795 797 797 798 800 802 803 805 806 807 808 809 810 812 813 814 815 816 818 819 821 822 823 824 826 827 827 828 829 829 830 830 830 830 830 830 830 830 830 830 830 830 830 830 830 830 829 830 830 830 830 831 831 832 832 833 833 833 833 833 834 834 834 835 835 835 835 836 836 837 837 837 837 837 837 838 839 839 839 840 841 841 842 842 843 843
790 792 793 795 796 798 800 801 803 805 807 808 810 810 812 814 815 816 817 819 820 821 822 823 825 826 826 827 828 828 829 829 830 830 830 830 830 830 829 829 829 829 829 829 829 829 828 828 829 828 828 829 829 829 829 830 831 831 832 832 832 832 833 833 834 834 834 834 834 835 835 835 835 836 836 837 837 838 838 839 839 840 840 841 842 843 843
789 791 793 795 797 798 800 802 803 804 806 809 810 811 812 814 815 817 819 820 821 822 823 824 825 825 826 827 827 828 829 829 829 829 830 829 829 829 829 829 828 828 828 828 828 828 827 827 827 827 827 827 827 827 827 827 828 830 831 831 830 830 831 832 832 833 833 833 833 833 833 834 834 835 835 836 837 837 838 838 839 839 840 841 842 843 843
791 792 794 796 797 800 801 803 804 806 807 809 811 812 814 815 817 818 820 821 822 823 823 824 825 825 826 827 827 827 828 828 828 829 829 829 828 828 828 827 827 827 826 826 826 826 826 825 825 825 825 824 824 825 825 825 825 826 827 827 828 828 828 829 831 832 832 832 832 832 832 832 833 834 834 835 835 836 837 838 838 839 840 840 841 842 843
792 793 796 798 799 801 803 805 807 808 809 811 813 814 816 817 818 819 821 822 823 823 824 824 825 826 826 826 827 827 828 828 828 828 828 828 827 827 827 827 827 826 825 825 824 824 824 824 823 823 823 822 822 822 822 823 823 823 824 825 827 828 828 827 828 830 831 830 830 830 830 831 832 832 833 834 834 835 836 836 837 838 839 840 841 842 843
794 796 798 800 801 803 805 807 809 810 811 813 815 816 818 819 820 821 822 823 824 824 825 825 826 826 826 827 827 827 828 828 827 827 827 827 826 826 826 826 826 825 824 824 823 822 822 822 821 821 821 820 820 820 820 821 821 821 822 823 824 827 830 830 828 828 829 829 828 828 828 829 830 831 831 832 833 834 835 835 836 838 839 840 841 842 843
796 798 800 801 803 805 807 808 810 812 813 815 816 818 820 821 822 822 824 824 825 826 826 826 827 827 828 828 828 828 828 828 827 827 827 826 826 825 824 824 824 824 823 822 822 821 821 820 820 819 819 819 818 819 819 819 819 819 820 821 820 822 826 829 830 830 829 829 828 828 827 828 829 830 830 831 832 833 834 835 836 837 838 839 840 841 842
797 799 801 803 804 806 807 809 812 813 815 817 819 820 821 822 823 824 825 826 826 827 827 827 828 828 829 829 829 829 828 828 827 827 827 826 826 825 824 823 823 822 822 821 820 820 819 819 818 818 818 817 817 817 817 817 817 817 818 819 820 820 822 825 828 830 829 829 830 829 827 826 827 828 829 831 832 832 833 834 835 836 837 838 839 840 841
798 800 802 804 806 807 809 810 812 815 817 819 820 822 823 823 824 825 826 827 827 828 828 828 829 829 829 829 829 828 828 828 827 827 827 826 826 825 823 823 822 821 821 820 819 818 818 817 817 817 816 816 816 816 815 816 816 816 817 818 820 820 821 823 825 826 827 828 829 829 827 826 825 827 829 830 831 832 832 833 834 835 836 837 838 839 840
799 800 803 805 807 808 810 811 813 816 819 820 821 823 824 824 825 826 827 827 828 828 828 829 829 829 829 829 828 828 828 827 827 826 826 825 825 825 823 822 821 820 819 818 818 817 816 816 815 815 815 815 815 815 815 814 815 815 817 818 818 820 821 822 823 824 825 826 827 828 828 827 826 826 828 830 831 831 832 833 834 834 835 836 837 838 839
800 801 804 806 808 809 811 813 815 817 819 821 822 823 824 825 826 827 827 827 828 828 828 829 829 829 829 829 828 828 828 827 826 826 825 825 824 824 823 822 821 820 818 818 817 816 815 815 814 814 814 814 815 815 815 815 815 816 816 817 818 819 820 821 822 824 825 825 826 827 828 828 827 827 828 829 830 831 832 833 834 835 835 836 836 837 838
801 803 805 807 809 811 812 814 815 817 819 821 822 823 824 825 826 827 827 827 828 828 828 829 829 829 829 829 828 828 828 827 827 826 826 825 825 825 823 822 821 820 819 818 817 816 815 815 814 814 814 814 815 815 815 815 816 816 816 817 817 818 818 820 822 824 825 826 826 827 827 828 828 828 828 829 830 830 831 833 834 834 835 836 836 836 837
801 803 805 808 810 812 813 815 816 818 819 821 822 824 825 825 826 827 827 827 827 827 828 828 829 829 829 829 828 828 828 828 828 828 828 827 827 826 825 823 822 821 820 819 818 817 817 817 816 816 816 815 815 815 815 815 816 817 817 817 818 818 819 820 822 823 824 825 826 826 827 827 827 828 829 829 830 830 831 832 833 833 834 835 836 836 837
801 803 806 808 811 813 814 816 817 818 820 821 822 824 825 825 826 827 826 826 826 826 827 828 828 829 829 829 828 828 828 828 828 829 828 828 828 827 826 825 823 822 821 820 819 819 819 819 818 818 818 817 817 817 816 816 816 817 817 818 818 819 820 820 821 822 823 824 825 826 827 827 827 828 829 829 830 830 830 831 832 833 833 834 835 836 837
801 804 806 809 811 813 815 816 817 818 819 820 821 823 824 825 826 826 825 825 825 826 826 827 828 828 829 828 828 828 829 829 829 829 829 829 828 827 826 826 825 824 823 822 821 821 821 821 820 820 819 819 819 818 818 818 818 818 818 819 820 821 821 822 822 822 823 824 825 826 827 827 827 828 828 828 829 830 830 831 832 833 833 834 835 836 837
801 803 806 808 811 813 814 816 816 817 818 819 821 822 824 825 825 825 825 824 824 824 826 827 827 827 827 827 828 828 829 829 829 829 829 829 828 827 827 826 826 825 824 824 823 823 822 822 822 822 821 820 820 820 820 820 820 820 820 821 822 822 823 824 824 824 824 824 825 826 827 827 828 828 828 829 829 830 831 831 832 833 834 835 836 836 837
801 803 805 808 810 811 813 814 815 816 818 819 820 822 823 823 823 823 823 823 823 824 825 825 825 826 826 827 827 828 829 829 829 830 830 829 829 828 827 827 826 826 826 825 824 824 824 824 823 823 823 822 822 821 821 821 821 821 822 822 823 823 824 825 825 826 825 825 825 826 827 827 827 828 829 829 829 830 831 832 833 833 834 835 835 836 836
800 803 805 807 809 810 812 813 814 815 816 818 819 820 821 821 822 822 821 822 822 823 823 823 824 824 825 826 827 828 828 829 829 829 829 829 829 828 828 827 827 826 826 826 825 825 825 824 824 824 824 824 823 823 823 823 822 823 823 823 823 824 825 825 826 826 826 826 826 827 827 827 827 828 829 830 830 831 832 833 833 834 834 835 835 835 836
801 802 804 806 808 809 811 812 813 814 815 817 818 818 819 819 820 820 820 821 821 821 822 822 823 823 824 825 826 827 828 828 829 829 829 829 828 828 828 827 827 826 826 826 826 825 825 825 825 825 825 825 825 824 824 824 824 824 824 824 824 825 825 825 826 826 827 827 827 828 828 828 828 828 829 830 831 831 832 833 833 834 834 834 834 835 835
Wind_Speed
8 8 8 9 9 9 9 8 12 15 16 14 7 4 3 2 8 8 9 12 11 8 7 5 3 6 8 7 6 5 5 6 7 9 10 7 6 6 5 5 5 5 6 7 12 17 19 19 18 17 17 15 12 12 12 11 11 12 17 19 17 16 15 14 14 14 12 12 13 14 16 16 16 16 17 17 14 9 6 4 4 6 7 6 8 14 18
9 10 9 8 7 9 10 13 17 15 15 18 17 14 11 7 8 11 11 12 9 4 4 6 6 8 10 9 7 7 6 6 7 9 10 9 7 6 5 5 6 6 7 8 9 9 10 11 12 13 15 13 10 10 9 8 7 6 10 13 12 8 4 0 2 4 3 1 1 1 5 8 10 14 16 16 15 13 12 9 5 4 5 4 4 6 9
8 9 9 6 6 10 14 17 17 16 16 18 17 15 12 9 10 12 12 10 6 4 4 7 7 8 11 10 8 6 5 5 7 8 8 9 9 8 8 7 6 6 7 9 11 11 11 12 12 11 10 7 6 9 10 8 7 3 3 5 4 2 4 6 5 5 7 9 8 6 5 6 7 8 10 13 15 14 12 11 10 8 6 4 4 3 3
6 9 7 7 7 9 14 15 16 15 14 13 12 12 11 8 7 8 9 7 4 4 6 7 7 8 10 9 6 5 5 6 8 8 6 6 7 8 9 8 7 7 8 9 10 11 12 12 11 9 7 5 4 6 7 6 5 2 1 2 3 1 5 9 8 5 6 11 14 12 9 9 10 9 8 10 12 12 11 9 10 10 9 7 7 5 3
5 8 8 10 7 6 8 9 10 11 11 11 12 12 14 12 7 4 3 3 3 3 5 9 10 11 10 8 5 5 6 8 9 8 6 6 6 7 8 9 8 9 9 10 13 15 15 15 14 13 11 10 9 7 5 4 3 4 5 5 3 1 3 6 7 7 8 10 12 9 6 6 9 10 10 11 11 10 10 9 10 11 10 9 9 8 6
4 8 7 7 5 5 2 5 5 8 10 13 14 12 13 13 7 3 3 5 6 7 8 11 12 10 10 9 8 7 7 8 8 6 5 5 7 7 9 9 9 11 13 14 16 17 17 16 16 16 15 14 13 10 8 6 4 5 7 8 8 7 6 6 6 7 8 9 9 10 9 8 9 9 11 11 11 11 11 12 12 13 12 12 12 10 7
2 5 5 4 3 2 2 4 4 6 7 10 13 12 13 11 6 4 7 10 11 10 9 10 11 10 10 10 10 9 8 7 6 3 3 5 7 7 9 9 9 13 16 17 17 17 17 16 16 16 15 13 12 11 9 8 7 6 7 9 10 9 7 6 5 5 6 8 8 10 11 12 12 12 12 12 13 13 13 13 13 13 14 16 16 13 10
1 3 4 2 2 1 3 4 6 6 5 5 8 9 11 10 5 3 7 10 10 9 9 8 9 10 9 9 7 7 7 6 2 2 5 8 8 8 9 9 9 12 16 18 18 18 17 17 17 16 15 13 12 12 11 10 10 9 9 10 10 10 8 6 4 4 4 5 6 7 8 10 10 10 11 12 13 14 14 14 14 15 16 17 18 18 18
2 2 2 1 2 1 4 5 4 6 5 4 5 5 6 7 5 4 6 8 7 7 7 6 7 10 10 9 7 8 9 8 5 6 7 7 7 11 14 14 12 13 15 16 17 17 16 17 17 17 17 16 15 15 14 13 13 12 12 13 13 12 11 10 8 6 5 5 5 4 4 4 5 7 8 9 11 12 13 13 14 16 16 15 15 15 18
2 4 2 2 1 1 2 4 8 7 6 6 5 4 3 5 5 4 6 7 7 6 4 3 5 7 8 6 4 8 11 10 8 10 11 11 11 11 13 15 15 15 16 15 15 14 14 14 14 14 15 16 17 17 16 15 15 15 16 15 15 14 14 13 12 11 10 9 7 5 4 3 2 3 5 7 7 7 8 9 10 12 12 13 13 12 14
3 5 3 0 2 3 4 6 9 6 7 9 7 3 2 4 4 4 7 7 6 5 3 3 5 6 5 2 1 3 6 6 7 8 11 14 14 12 13 17 17 17 17 16 15 14 15 14 14 14 15 16 17 17 16 16 16 17 16 15 14 15 14 14 15 15 14 14 12 11 9 6 4 2 1 1 2 2 2 3 4 6 8 10 11 11 13
3 5 3 1 1 2 5 7 7 4 7 9 7 2 1 2 2 4 6 8 6 4 3 3 4 4 4 4 3 3 6 8 8 9 11 14 13 11 14 17 17 16 16 15 14 14 14 14 14 13 14 15 16 15 14 15 15 15 14 14 14 14 15 15 15 15 14 14 14 13 11 8 6 4 4 5 4 3 3 4 5 3 1 1 3 5 10
3 3 3 2 1 2 5 7 7 2 5 6 4 2 3 2 3 4 6 8 6 4 3 3 3 3 4 6 6 6 8 9 9 10 14 16 15 14 15 16 15 16 16 15 14 13 13 14 13 12 13 14 16 16 14 14 13 13 12 13 12 12 12 13 14 14 14 13 12 12 11 10 9 7 6 8 7 6 7 9 11 12 12 12 12 13 12
1 0 2 2 0 3 4 6 7 2 4 3 2 3 3 3 4 5 6 7 6 4 4 4 5 5 5 6 7 9 10 9 9 12 15 16 15 14 14 15 16 17 16 15 15 14 14 14 13 13 14 15 15 15 14 13 11 11 11 12 12 12 11 12 13 14 13 13 12 11 10 11 11 11 10 10 10 8 9 11 13 14 16 18 18 17 15
2 1 1 3 0 3 5 4 3 3 3 4 4 3 3 5 6 6 6 6 6 6 6 6 6 7 6 5 5 8 10 10 11 15 16 15 14 14 15 16 15 15 15 14 15 15 14 14 14 14 14 14 14 14 13 11 10 10 10 10 11 11 11 12 11 11 11 12 12 11 10 10 10 10 10 9 9 9 9 11 12 13 14 17 18 18 16
2 2 2 2 2 2 2 1 3 3 2 4 5 5 4 5 5 5 5 6 6 6 7 7 7 7 7 5 4 6 9 9 10 14 17 16 15 16 16 16 15 15 16 16 16 16 15 14 14 14 15 16 15 14 12 10 10 10 9 9 9 8 8 9 10 9 9 9 8 8 8 8 8 8 9 9 9 9 10 11 12 12 11 12 14 15 15
2 3 3 3 3 1 5 5 5 5 5 5 6 7 5 5 5 4 4 6 6 5 5 6 5 5 6 6 4 4 8 8 8 12 16 17 16 16 17 17 16 17 17 17 16 15 14 14 14 14 15 16 14 12 10 9 9 9 9 9 9 7 7 7 7 7 9 10 10 9 7 6 6 7 8 9 11 11 11 12 15 15 13 11 12 13 12
4 5 4 4 4 5 7 7 7 7 8 7 7 7 5 4 5 5 5 6 5 4 4 5 4 4 4 4 3 4 7 8 8 10 13 15 17 19 19 18 16 17 17 16 15 14 13 13 13 12 13 13 13 11 9 8 9 10 9 9 7 6 5 5 4 4 5 7 8 9 9 8 8 8 7 7 9 10 11 13 14 15 17 16 14 13 12
5 4 4 6 6 6 6 8 8 8 8 7 6 6 5 5 5 5 6 6 5 5 5 5 5 4 4 5 5 5 5 7 9 10 10 13 18 21 19 16 16 17 17 15 13 14 13 12 11 11 11 11 11 10 8 9 9 8 8 9 8 7 7 7 6 5 4 3 2 3 6 7 7 7 7 6 6 7 9 11 11 12 14 16 15 14 14
4 5 6 7 7 6 6 6 6 6 7 6 6 6 6 6 6 6 6 6 6 5 5 5 5 4 4 5 6 6 5 6 8 10 11 14 17 19 18 17 18 18 16 14 13 13 14 12 10 10 9 8 8 9 9 8 7 5 5 4 4 5 6 6 5 5 6 7 6 7 7 7 7 7 7 6 6 8 8 9 10 10 11 12 13 14 14
5 6 7 7 7 7 7 7 6 5 6 6 6 6 6 7 7 7 8 9 7 6 6 5 5 5 4 5 6 6 5 6 9 11 13 14 15 16 16 17 19 18 16 15 13 12 12 11 10 9 8 7 6 7 7 6 5 4 3 2 2 4 6 5 7 7 7 10 10 9 9 9 9 9 8 6 6 6 6 6 6 6 6 7 8 9 8
4 5 6 7 7 6 5 6 7 6 7 7 8 7 7 7 7 7 7 9 10 10 10 8 7 5 5 6 7 7 6 8 10 13 15 14 13 14 16 17 17 17 16 14 12 12 10 10 9 9 8 7 6 5 5 5 5 5 3 4 5 6 6 7 9 8 6 6 8 8 8 8 8 8 8 6 5 6 5 4 3 2 1 2 3 4 4
4 5 6 6 7 6 5 7 7 7 7 8 8 7 7 7 7 7 7 7 8 9 10 11 9 6 6 8 9 8 7 9 9 10 11 12 11 12 15 16 16 16 15 13 12 12 11 10 9 8 8 8 7 6 5 4 4 6 4 3 3 3 3 4 6 6 6 5 5 5 6 5 5 6 5 5 5 6 6 5 4 2 1 1 1 3 4
6 6 7 7 8 7 7 7 7 7 7 8 7 7 7 7 8 9 7 7 7 7 8 12 14 9 9 11 10 7 8 8 7 5 6 8 9 10 13 15 15 15 15 14 13 12 10 10 9 8 8 7 7 6 6 4 5 6 3 1 1 4 3 4 5 4 4 4 4 4 5 5 4 3 2 1 2 4 5 5 5 5 4 3 3 2 2
7 7 7 8 9 8 7 8 7 8 10 10 8 7 7 7 9 10 8 7 10 10 7 9 14 15 12 10 9 9 9 8 6 4 4 3 6 9 10 13 15 15 14 14 13 12 11 11 10 9 9 8 7 6 6 5 5 5 1 1 5 8 5 4 5 4 3 2 3 3 3 3 3 3 2 0 2 2 2 3 4 5 6 7 7 7 6
9 9 9 9 8 7 7 7 6 7 11 13 9 6 7 7 9 12 11 9 12 14 12 11 12 13 14 13 11 11 11 7 5 4 4 3 3 4 4 7 12 15 14 14 14 12 12 12 11 10 11 10 9 8 7 6 6 5 3 2 7 9 7 6 6 5 3 3 3 4 3 3 3 3 4 3 4 2 2 2 2 4 7 9 8 8 9
7 8 9 9 7 5 5 7 6 7 12 14 12 9 8 7 9 13 14 12 14 17 15 13 11 11 12 12 12 11 10 7 6 6 5 4 4 4 2 3 9 13 12 13 14 13 11 12 12 11 11 12 11 10 9 8 8 7 6 5 5 6 6 6 6 4 4 3 3 4 5 4 3 2 4 3 2 1 1 2 3 4 7 8 7 7 9
5 6 5 6 7 6 7 9 10 10 11 12 13 13 11 8 7 10 11 10 13 16 15 12 12 13 13 12 12 12 12 12 12 11 9 7 5 3 2 1 6 10 10 10 11 12 11 12 12 11 12 13 13 12 11 10 10 10 9 7 5 6 7 7 6 5 5 5 5 4 4 4 4 3 3 2 2 3 3 3 2 4 8 8 6 7 9
5 6 6 6 9 10 10 11 11 9 8 8 8 8 7 6 5 6 6 8 11 12 12 12 13 14 14 14 13 12 12 12 11 10 10 9 7 4 2 0 4 9 9 8 10 11 11 12 12 11 11 13 14 13 13 12 11 11 11 9 7 7 7 8 7 7 6 6 5 5 4 5 5 5 3 1 1 1 3 5 5 6 7 6 5 6 10
6 7 7 7 8 10 9 8 7 7 7 6 5 5 5 5 5 6 6 9 11 11 10 12 14 14 14 14 11 9 8 7 7 6 6 6 7 6 5 2 2 6 7 6 6 8 9 11 11 9 9 12 14 15 14 13 12 11 12 11 11 10 10 10 10 9 7 5 4 3 3 4 5 6 4 2 1 1 2 3 3 2 2 4 6 7 9
6 8 8 7 7 8 8 6 6 7 7 6 5 4 5 6 6 5 5 7 9 10 11 13 14 14 13 11 8 6 5 5 5 5 5 4 4 5 5 4 2 2 4 6 6 7 8 10 12 11 10 10 14 16 16 14 13 13 14 13 12 13 14 14 12 10 8 7 6 4 3 3 4 4 3 3 3 2 2 2 2 3 4 7 9 10 10
7 8 8 6 6 7 7 6 5 5 6 6 4 4 5 5 6 5 5 7 9 11 12 12 12 11 10 7 5 3 3 3 3 3 3 3 3 4 4 5 5 5 5 6 6 7 8 11 15 17 15 13 15 18 19 18 17 16 17 16 15 14 16 15 12 10 10 10 9 7 6 5 5 5 4 4 4 3 2 2 3 4 7 11 14 14 11
7 6 6 5 5 6 7 6 5 4 5 5 5 6 8 8 8 8 9 9 11 12 12 11 9 7 5 4 3 2 2 2 3 3 4 5 5 6 6 6 5 5 5 5 6 6 7 9 12 15 16 16 16 16 17 18 19 19 19 19 17 16 17 17 14 13 12 12 10 9 7 6 6 5 5 4 3 2 1 2 3 4 7 10 11 10 8
7 6 6 6 5 5 6 6 5 5 5 6 7 9 9 9 9 10 10 11 11 11 10 9 7 6 4 4 5 6 5 5 5 5 6 7 7 8 8 9 8 7 7 7 8 8 8 9 10 11 13 17 19 19 16 16 17 19 20 21 20 19 19 18 16 15 14 14 11 10 9 9 8 7 5 4 4 3 3 3 2 5 7 8 7 6 6
9 7 8 9 7 6 7 7 6 6 6 5 5 7 8 8 8 10 10 9 8 8 7 5 4 4 4 4 5 6 6 6 6 7 8 9 9 9 9 10 10 10 11 11 10 9 9 10 11 12 13 16 19 20 19 19 18 16 16 16 17 17 18 20 19 16 14 13 12 12 12 11 9 8 6 5 4 4 3 4 4 4 5 5 5 5 5
10 7 6 8 9 11 11 9 8 8 7 6 7 8 9 9 10 10 9 7 6 5 5 4 4 4 5 6 5 5 6 7 9 10 11 12 13 13 13 12 12 13 14 14 13 13 12 12 12 13 14 16 17 17 18 20 20 18 18 17 15 12 14 17 19 18 16 14 14 15 14 11 9 8 8 7 6 5 3 4 5 5 5 5 6 6 6
13 11 9 10 13 15 15 13 13 13 13 12 12 12 12 12 11 10 9 8 8 8 8 7 7 7 8 8 8 8 9 9 10 11 12 13 14 15 15 14 14 14 14 14 14 14 14 14 14 13 14 15 16 17 18 19 20 21 24 23 18 14 15 16 16 16 17 15 14 13 13 11 10 10 9 8 8 7 5 5 6 7 7 7 8 7 7
15 16 15 14 16 16 15 14 15 14 13 13 13 14 14 13 12 11 11 11 11 10 10 10 9 9 9 9 9 9 10 10 11 12 13 13 13 13 13 13 13 14 14 14 15 14 13 12 12 11 12 12 13 14 16 17 18 19 21 19 16 14 15 18 18 18 18 16 14 13 12 11 9 8 8 9 9 8 7 9 10 9 8 8 7 7 6
13 14 17 17 16 15 15 15 16 15 14 14 15 14 12 11 10 10 12 13 13 11 11 11 11 11 11 12 12 11 12 14 15 16 16 17 17 16 15 13 13 14 15 15 13 12 12 12 12 13 13 13 12 12 12 13 15 18 19 19 17 15 14 13 15 16 17 17 17 15 13 11 10 8 7 8 8 8 8 8 8 7 6 5 4 4 4
10 12 15 15 13 12 12 15 16 15 14 15 14 13 11 10 10 11 12 13 12 11 11 11 12 12 13 13 13 13 14 15 15 16 17 18 17 16 15 15 15 16 16 14 10 10 11 11 12 11 11 10 10 10 9 10 12 15 16 19 20 18 14 12 11 10 9 11 15 18 17 13 12 11 11 10 9 10 10 9 7 7 7 6 5 5 5
11 12 13 12 11 11 13 16 17 16 15 14 14 13 11 10 10 11 11 10 10 9 9 10 10 11 11 10 11 12 13 14 14 15 16 16 16 15 13 13 14 15 15 13 11 11 11 11 10 10 9 9 10 11 10 11 12 13 14 17 16 15 15 13 9 8 7 6 7 13 16 15 13 11 8 6 6 8 9 10 10 10 9 8 6 4 2
12 13 14 13 12 13 15 17 17 16 15 14 13 12 11 10 10 10 9 8 8 8 8 8 9 9 9 10 11 12 12 13 14 14 14 14 15 14 12 11 12 14 14 13 12 10 10 10 10 11 12 12 12 10 8 8 9 10 11 13 12 9 8 8 7 6 4 2 2 4 8 11 12 9 6 4 4 5 7 10 11 11 9 7 5 3 1
12 14 15 14 14 13 14 16 16 16 15 13 11 11 10 9 9 9 8 8 8 8 8 8 9 9 9 10 10 10 11 13 14 13 14 15 14 11 10 11 13 14 13 13 12 10 9 9 9 9 9 9 7 3 4 5 6 7 8 9 10 8 5 4 5 6 6 5 3 1 4 7 9 10 9 8 7 7 7 7 8 8 7 6 5 4 4
15 15 15 15 14 13 12 13 14 14 14 13 11 10 10 10 9 8 8 8 8 8 8 8 9 9 10 10 10 11 11 12 11 11 12 12 11 10 10 12 12 10 9 9 9 7 6 6 6 5 4 3 4 7 7 5 5 6 7 6 6 5 3 2 3 4 4 3 4 4 3 4 6 7 6 5 5 5 5 6 8 8 7 7 7 6 5
15 16 16 15 13 11 11 12 13 13 14 14 13 11 10 9 8 7 7 7 7 7 7 7 8 9 10 10 11 11 10 9 9 11 11 9 8 10 13 13 10 7 5 5 5 3 3 2 2 0 2 4 7 8 6 4 4 5 6 6 6 5 5 4 3 2 4 6 6 6 5 4 5 5 3 2 3 3 3 4 6 7 8 8 7 6 6
16 16 16 14 13 11 11 13 13 13 13 14 13 11 8 8 8 7 6 5 5 6 6 6 6 7 8 9 9 10 9 8 9 11 11 9 8 9 12 12 9 5 4 4 5 6 6 5 4 4 4 5 7 7 7 8 9 9 8 8 7 6 6 7 6 5 5 5 4 3 3 3 4 6 5 4 5 5 5 6 6 5 5 5 5 5 4
17 15 14 14 14 13 11 11 11 10 11 12 12 11 9 8 7 7 6 5 5 7 8 7 7 7 7 8 9 10 9 7 7 9 10 9 8 9 10 11 9 6 6 6 6 6 6 5 5 5 4 4 6 8 9 10 10 9 8 8 8 7 4 3 2 3 3 2 2 3 5 5 6 7 9 9 7 5 4 5 5 5 4 3 2 2 1
17 15 14 15 15 14 12 11 10 9 9 11 13 13 11 8 7 7 7 5 6 8 10 10 8 8 7 8 9 9 7 6 6 7 7 8 8 8 9 10 9 8 7 7 7 7 6 5 5 5 5 4 4 5 5 5 6 7 8 8 8 7 5 3 2 3 4 4 5 6 6 5 3 4 6 7 8 7 5 4 3 3 2 1 1 0 1
17 16 16 17 16 16 14 12 9 8 10 13 14 14 12 9 9 9 8 7 7 8 13 14 11 9 8 8 9 8 6 5 5 5 5 6 6 6 6 7 7 6 5 5 5 4 4 5 5 6 5 4 5 6 6 6 6 7 7 7 7 6 6 7 7 7 7 7 5 4 5 5 4 3 3 3 4 5 6 5 3 1 0 1 1 1 2
17 17 16 15 15 16 15 13 10 10 14 15 13 12 12 12 11 11 11 10 7 8 14 16 14 11 8 6 7 7 6 5 5 5 5 5 5 5 5 5 5 5 5 5 5 5 4 4 5 5 5 5 6 7 7 7 7 6 6 6 6 6 6 7 6 6 6 6 5 4 5 5 4 3 3 2 1 1 1 2 3 2 2 2 2 2 2
16 17 16 15 16 15 14 12 12 15 17 16 13 12 12 13 12 11 10 10 7 7 11 14 14 13 10 8 8 6 4 4 5 5 3 3 3 3 4 6 8 8 7 7 8 7 6 4 2 3 5 5 5 5 6 6 7 6 5 5 5 6 6 6 5 4 4 5 6 5 5 4 2 1 1 0 0 1 2 3 2 2 2 3 3 3 3
16 15 15 16 16 14 11 10 11 13 14 15 15 14 13 14 14 11 9 7 4 3 5 9 13 15 13 10 8 6 4 4 5 4 1 2 2 1 1 4 6 6 5 5 6 6 6 5 3 2 3 3 2 2 4 4 4 4 3 2 2 3 4 5 5 5 4 4 3 3 3 2 1 0 2 2 2 2 3 4 4 4 4 4 4 4 4
Wind_Direction
296 296 291 290 309 314 304 340 19 21 16 13 7 345 311 155 129 142 156 137 133 164 176 161 126 86 82 83 84 74 63 74 96 107 104 92 54 41 51 45 45 73 90 105 126 135 142 147 146 154 166 173 173 169 168 168 167 181 193 192 191 189 188 191 192 191 194 199 205 212 215 218 218 215 221 233 242 248 250 239 197 196 217 224 212 209 213
302 307 304 306 342 3 11 24 27 28 34 35 27 19 20 47 107 126 129 124 127 154 149 121 99 92 93 86 76 73 69 80 109 122 120 114 100 82 84 72 51 56 54 48 68 100 122 124 119 127 136 139 136 127 130 143 149 176 201 196 190 185 174 200 252 232 223 183 110 190 202 203 207 212 219 228 239 247 246 244 235 207 203 186 176 198 205
316 300 292 310 10 44 45 32 22 25 37 40 32 22 21 40 82 98 101 105 96 49 74 102 103 103 100 89 80 79 72 83 107 116 120 126 130 126 119 113 103 95 81 62 53 49 47 49 52 63 75 77 88 93 98 127 151 183 218 183 149 142 183 192 201 229 234 221 214 209 186 168 169 189 208 219 229 237 239 242 245 243 238 228 220 225 203
317 292 305 345 14 55 50 29 19 25 33 42 41 28 20 27 62 82 84 89 75 35 54 68 62 72 87 92 95 90 75 73 85 92 98 107 118 123 121 116 109 100 92 85 78 67 60 60 61 67 73 62 47 57 67 91 118 104 62 83 73 91 211 208 202 210 222 215 213 207 196 193 193 192 202 213 220 229 238 245 251 251 250 244 236 235 229
301 301 332 348 353 48 47 17 21 32 35 49 51 37 30 28 30 46 52 46 34 28 53 61 55 54 66 79 82 78 80 79 74 65 54 66 85 103 114 112 106 105 103 101 100 92 83 85 90 98 108 103 82 72 74 80 89 86 75 71 75 92 258 248 233 224 216 211 207 194 176 194 207 207 214 223 227 235 244 251 257 259 257 248 237 232 227
292 311 334 348 7 58 18 314 14 50 55 62 60 45 36 35 30 25 45 58 60 55 59 67 66 59 59 67 64 57 65 80 81 60 30 51 74 84 97 102 101 107 106 101 101 99 93 93 93 92 96 97 92 90 93 93 92 89 86 95 114 138 174 205 213 215 214 211 204 193 187 197 210 218 227 234 240 246 248 249 251 252 252 250 243 232 229
298 323 354 23 46 89 261 293 20 57 70 80 74 55 41 42 42 41 60 70 71 69 67 66 67 65 62 67 69 70 78 93 106 105 93 98 91 80 86 91 94 103 104 99 95 96 98 98 96 92 91 93 95 91 88 89 90 86 85 90 99 114 137 159 173 188 202 208 207 207 212 214 217 225 232 236 240 243 244 242 240 237 239 244 241 231 233
359 354 11 47 179 239 326 359 33 32 26 64 75 49 28 34 47 48 66 75 75 75 77 76 81 79 69 63 62 76 100 116 126 113 115 118 113 104 99 94 93 101 105 106 107 107 110 110 109 109 110 110 106 100 97 99 97 95 97 92 91 98 105 114 136 160 178 190 194 204 217 217 218 225 231 236 240 242 244 244 238 234 232 238 244 240 237
83 85 358 328 188 297 357 9 5 6 16 41 80 73 25 23 43 55 69 77 74 67 59 62 90 93 75 53 21 23 56 73 67 66 75 85 97 109 114 114 111 108 106 107 108 109 112 115 117 124 128 130 127 119 115 113 109 108 106 98 95 98 96 97 105 116 134 150 156 168 187 198 210 225 235 242 246 248 251 251 247 245 244 244 250 242 228
100 102 40 340 213 242 305 306 311 336 23 19 24 80 46 3 24 65 82 81 77 78 64 50 92 92 73 55 8 15 37 45 52 63 63 56 54 70 94 101 98 95 93 94 97 101 102 102 107 117 123 125 125 120 115 115 112 108 102 97 97 98 95 96 99 100 104 107 108 117 130 140 171 219 238 243 246 250 255 257 257 259 258 254 254 239 213
129 117 109 207 228 254 261 278 299 333 31 12 358 43 35 330 349 62 92 94 87 98 117 111 104 95 87 106 164 70 71 63 60 72 76 72 63 57 72 84 87 89 91 91 92 94 95 95 98 104 107 109 109 106 104 106 104 98 94 94 98 99 98 100 104 104 103 99 96 98 103 110 125 131 145 207 225 238 254 276 286 283 273 264 262 249 220
139 127 131 159 239 260 243 256 284 337 42 25 19 64 210 292 350 61 94 109 114 129 133 99 88 91 115 151 172 125 112 101 90 94 97 95 94 88 88 92 95 97 99 99 101 102 105 107 106 105 107 108 106 103 101 99 94 90 89 91 95 99 100 103 106 106 104 102 100 98 95 90 87 85 84 83 86 104 104 82 72 63 36 241 198 174 178
81 100 119 137 228 235 226 251 272 279 76 51 46 170 207 185 117 86 95 113 130 149 135 85 58 58 102 141 157 144 128 116 109 112 110 109 112 113 110 108 104 100 101 101 102 109 117 119 116 114 112 107 103 105 105 101 95 92 92 93 97 102 104 104 104 103 101 100 100 100 97 86 75 76 83 72 63 80 98 92 92 93 89 93 104 106 110
71 93 103 95 192 229 220 249 272 271 107 105 183 206 193 119 92 70 74 95 113 119 102 89 95 101 112 136 148 143 137 135 131 125 116 114 121 129 126 119 112 112 115 112 105 105 111 112 113 115 113 107 105 109 110 108 105 99 94 94 96 99 103 106 107 106 103 98 93 90 90 88 83 83 84 71 57 67 92 96 98 101 97 94 97 98 94
133 144 91 79 143 248 242 249 297 10 89 148 157 123 77 69 67 54 49 62 83 94 93 93 107 122 128 133 138 137 136 137 136 134 129 126 131 135 132 128 130 131 128 119 109 106 106 108 112 116 115 110 110 110 107 108 112 110 103 97 92 90 94 98 102 105 105 101 93 83 77 81 84 82 81 77 66 63 77 86 92 103 108 102 98 99 99
132 136 126 131 186 268 321 59 88 80 123 152 128 103 83 68 70 68 58 53 67 94 112 121 128 135 137 139 143 136 133 136 136 133 134 137 143 142 136 133 131 122 110 104 103 104 108 113 116 116 113 108 106 105 104 106 112 112 108 102 95 91 91 92 94 99 100 97 91 81 75 77 78 74 72 71 67 66 69 69 72 85 108 118 112 106 103
131 145 149 150 153 71 40 62 89 92 86 86 91 96 93 72 67 76 78 66 56 64 92 114 125 131 133 143 155 132 125 130 128 129 139 149 151 142 132 126 119 111 109 110 109 108 111 115 117 119 119 115 108 104 106 109 108 109 110 107 103 105 105 101 97 94 88 84 84 89 92 84 72 67 63 58 58 61 64 64 64 66 75 98 114 115 114
103 103 118 121 102 70 58 60 64 69 68 65 69 79 86 86 81 80 88 91 80 67 73 85 84 74 89 115 118 106 115 125 124 125 136 143 137 127 123 123 123 119 117 116 114 114 115 114 114 118 120 118 114 112 115 120 118 117 118 113 105 107 112 109 112 116 103 90 85 82 78 74 71 72 69 60 59 59 57 58 63 64 67 79 94 105 114
117 107 128 122 103 93 85 76 71 72 71 66 66 71 74 79 82 86 99 112 115 105 96 95 87 66 54 68 78 80 93 115 128 127 119 116 122 127 130 133 131 124 120 121 123 124 123 119 117 119 118 117 117 118 118 120 120 116 114 111 107 107 108 105 112 123 116 95 110 102 79 74 79 83 82 76 72 67 58 56 59 62 67 76 85 95 112
119 123 141 135 123 122 113 96 90 91 92 91 92 90 83 76 73 75 87 101 116 124 117 112 109 98 80 82 90 84 70 79 108 122 115 110 118 128 135 136 132 125 123 123 121 118 119 122 123 122 117 114 119 126 122 116 112 111 114 117 117 120 117 102 99 112 96 82 103 133 120 104 105 101 92 83 74 67 61 60 64 68 70 72 81 94 110
105 124 141 138 120 106 97 96 96 94 97 99 94 87 83 78 71 63 56 56 66 94 110 111 102 90 79 78 86 88 80 74 86 103 111 113 114 119 125 129 129 128 127 126 121 119 124 129 130 129 127 122 123 132 135 130 128 130 125 91 87 129 138 106 84 100 105 90 92 105 103 95 97 98 93 83 65 55 48 45 52 62 63 60 69 83 92
141 153 153 143 126 114 110 113 109 95 87 84 80 77 74 68 66 69 63 49 46 62 85 100 102 86 64 63 74 83 87 88 91 102 115 121 118 116 123 128 131 133 136 135 133 134 136 139 141 144 147 142 133 131 135 133 134 138 120 62 68 101 119 101 85 88 95 88 84 89 88 82 82 88 91 85 68 55 47 32 23 26 22 14 27 31 23
141 137 133 128 121 122 127 121 114 106 96 87 81 82 83 76 67 65 67 63 53 52 62 71 83 104 105 87 79 76 81 94 102 107 118 129 129 126 131 136 137 139 144 147 149 150 151 153 157 159 157 154 155 155 149 137 136 140 124 57 65 104 113 107 98 81 71 74 77 80 87 87 82 81 85 86 80 69 60 47 34 32 35 359 335 326 322
106 107 113 115 111 115 122 113 101 99 105 104 95 84 81 83 82 76 68 68 70 68 56 51 55 75 113 116 107 95 90 96 103 103 113 136 147 146 145 146 146 147 152 158 161 163 166 166 167 170 169 167 171 171 166 162 158 153 143 349 155 147 119 104 111 95 73 81 90 88 90 94 95 84 43 23 109 94 75 64 58 60 72 78 63 23 342
108 105 105 107 109 114 115 102 89 88 95 97 93 80 70 74 87 89 82 70 72 77 78 62 52 54 71 91 107 117 110 94 86 94 103 133 162 163 160 160 159 160 163 165 167 173 179 180 181 184 178 174 183 186 178 173 167 165 188 288 147 145 139 127 129 123 100 99 125 122 103 98 107 88 17 323 155 140 101 84 81 86 94 92 83 71 58
112 117 113 110 110 112 114 112 111 109 104 101 99 95 87 91 101 99 89 81 82 81 78 76 70 63 61 60 70 96 108 97 82 88 74 52 85 131 158 178 176 172 171 173 175 180 186 188 192 196 186 180 189 196 190 187 186 188 209 184 143 143 154 168 165 155 134 120 131 135 124 126 123 70 44 88 133 166 205 179 148 133 122 110 99 91 76
107 118 122 124 120 111 114 121 121 116 114 116 121 122 118 121 123 114 102 92 90 87 80 72 72 76 76 67 63 74 86 83 76 76 60 41 66 85 77 175 180 175 173 176 180 184 192 197 200 201 194 190 195 201 201 201 199 198 211 216 187 171 177 182 181 183 179 170 160 145 139 147 145 86 59 69 71 17 200 189 202 187 158 134 117 104 89
92 91 103 129 135 124 113 111 107 102 108 119 129 137 148 160 141 122 121 117 106 100 96 85 75 74 77 71 61 58 57 54 55 55 45 38 52 73 60 142 178 182 185 187 188 190 198 204 207 208 205 199 199 203 207 208 206 203 207 212 205 199 196 186 178 189 202 212 221 216 205 204 186 138 102 60 24 34 50 50 67 149 153 148 142 125 103
96 80 77 99 119 119 111 106 105 102 101 111 120 128 146 162 139 114 122 127 115 107 104 97 85 78 77 73 64 57 53 50 45 40 34 31 31 28 20 320 208 205 203 201 198 200 207 211 212 217 213 201 197 203 210 214 214 208 203 202 203 200 184 173 180 200 208 214 233 243 234 218 195 165 133 83 23 56 48 44 59 100 133 158 178 155 123
106 100 96 98 107 113 112 113 122 126 121 118 110 83 63 73 91 93 97 107 111 113 113 107 98 91 87 81 70 61 60 60 53 44 36 29 21 18 23 21 229 219 222 230 225 219 219 216 216 227 226 206 201 207 215 220 221 212 202 204 214 212 194 183 193 206 205 203 213 204 165 161 165 158 149 152 160 129 75 58 49 61 136 176 189 170 138
111 109 115 118 117 118 118 119 126 128 123 121 123 108 83 81 93 98 100 105 109 110 106 100 96 92 92 89 81 71 69 68 59 47 39 26 8 359 2 5 350 269 260 267 260 247 234 222 221 232 238 225 217 218 219 221 222 215 209 214 220 212 200 198 205 204 195 195 203 200 187 184 180 175 186 195 172 138 109 99 69 52 95 124 136 141 138
119 112 116 123 121 115 112 110 113 122 126 126 122 109 97 96 96 92 89 92 94 92 88 85 83 83 86 87 87 80 65 52 41 18 358 352 349 345 339 331 322 310 298 292 287 274 257 245 241 240 239 235 229 224 224 226 223 214 212 220 222 210 200 203 210 208 199 199 205 212 219 220 205 192 191 183 162 140 114 98 78 75 101 119 126 131 132
132 127 126 126 125 124 127 134 142 142 132 123 108 86 77 77 79 77 78 83 86 87 87 87 85 82 80 81 81 66 29 16 7 345 338 342 345 344 339 331 321 308 295 295 300 289 263 254 255 250 243 239 237 232 229 230 226 218 215 220 225 220 211 209 213 215 208 203 203 206 207 206 199 190 179 169 167 170 160 122 80 84 109 120 122 122 114
137 143 148 146 145 148 150 148 134 107 95 98 100 95 86 79 79 81 82 80 77 78 81 82 79 69 54 44 34 20 7 358 348 338 337 335 330 324 322 320 318 315 308 302 299 288 272 266 268 263 252 246 244 242 239 232 226 223 221 222 224 227 225 222 220 218 210 203 202 207 206 200 192 180 162 154 162 170 172 163 109 93 110 123 120 108 86
134 136 141 141 133 118 117 123 124 117 112 109 108 110 110 103 94 91 88 82 77 78 79 77 70 54 36 23 8 356 349 346 343 341 340 337 332 328 323 317 312 313 314 310 303 297 290 283 278 277 272 264 257 253 248 239 232 231 233 231 228 229 230 227 224 218 212 209 209 208 207 207 203 195 189 190 185 169 159 166 156 119 108 121 127 112 84
123 115 116 121 112 96 90 96 111 119 113 97 87 96 106 108 102 98 97 92 84 75 62 44 36 32 24 15 6 358 352 349 344 338 331 326 323 319 318 317 315 312 307 302 300 299 295 289 287 287 284 278 272 267 261 253 245 239 239 238 232 223 221 224 223 218 214 218 220 213 208 207 204 195 189 189 186 175 156 152 153 139 111 106 117 116 98
109 102 92 90 91 86 79 77 84 91 90 82 76 76 80 82 83 82 80 73 62 53 46 38 33 29 21 10 358 348 340 333 325 319 315 313 312 310 307 304 303 300 293 289 292 295 292 287 287 288 286 284 279 275 273 272 263 247 238 237 236 225 212 213 221 226 223 218 211 203 194 186 180 180 183 184 184 184 175 148 134 127 111 98 98 99 90
100 99 95 92 91 91 86 82 84 87 89 87 82 76 72 72 70 67 63 59 52 48 44 38 30 22 12 1 351 343 340 338 337 335 332 330 329 327 322 315 309 306 301 296 297 301 303 304 303 302 302 300 292 283 282 282 273 255 245 248 257 251 227 213 213 221 225 217 203 190 182 178 182 198 210 209 202 188 167 145 130 120 109 96 88 86 80
98 98 98 96 96 96 95 89 83 78 81 85 83 77 73 71 70 68 65 61 55 49 43 36 29 24 17 9 3 359 356 353 350 347 344 342 339 336 332 327 324 320 315 310 308 307 309 312 311 309 307 301 294 293 295 286 271 260 254 253 257 258 251 238 227 222 222 218 208 195 184 183 189 187 177 173 170 156 140 134 128 118 106 92 83 82 73
107 110 110 113 119 122 114 102 92 84 82 84 84 81 78 76 74 71 66 59 53 47 41 36 32 28 20 10 0 354 351 348 346 343 341 339 337 334 330 328 328 326 324 323 323 322 319 315 310 310 311 303 293 296 298 285 273 265 255 246 241 236 236 250 271 282 279 254 222 201 189 183 178 162 144 139 145 143 137 132 129 128 125 115 109 109 99
121 122 117 117 126 126 114 105 100 95 92 90 88 86 83 81 78 73 67 60 55 49 43 39 34 27 16 4 356 352 350 348 346 343 340 337 333 328 323 321 322 324 326 327 326 324 322 317 310 308 307 298 290 290 288 280 273 259 239 229 228 221 211 215 243 285 309 297 231 201 188 178 170 165 165 175 180 171 163 155 145 140 138 135 128 126 111
132 122 107 97 98 104 107 109 108 104 99 97 96 94 91 87 83 78 73 67 61 53 44 38 32 25 15 7 2 358 353 349 346 344 343 339 334 332 332 332 331 329 327 322 317 314 312 308 304 300 295 291 291 292 285 269 262 249 226 213 208 201 192 193 202 204 196 168 113 128 139 141 141 142 149 165 168 165 167 167 163 160 159 155 143 135 143
124 115 107 102 102 101 104 111 114 113 109 105 103 102 99 94 86 80 75 69 63 57 49 40 32 25 16 8 2 355 349 346 345 343 340 335 334 341 354 351 341 335 328 318 310 305 303 303 301 298 296 294 288 260 214 209 207 196 188 191 194 193 185 168 155 154 164 190 225 359 67 98 114 116 115 114 108 100 102 114 128 142 154 158 155 152 150
113 111 109 111 112 111 113 118 121 121 120 118 115 110 103 96 91 86 79 72 66 61 54 44 35 25 16 10 4 357 352 352 355 355 349 341 340 352 1 354 345 343 341 331 319 311 309 312 310 302 295 270 195 176 174 182 188 179 168 169 177 178 163 132 117 108 110 142 177 180 143 107 103 107 110 107 97 88 84 83 87 97 111 124 134 139 133
118 118 118 117 118 122 128 128 123 122 123 120 114 108 103 101 101 98 91 86 83 75 64 53 43 34 26 19 13 9 11 22 34 32 23 14 5 359 355 352 352 359 3 356 358 19 41 30 16 68 148 158 168 174 173 165 159 159 152 150 152 143 120 107 117 150 141 129 126 131 130 104 68 43 26 44 77 98 118 117 109 106 103 99 100 105 105
118 119 124 124 117 113 116 117 118 125 132 127 118 115 119 122 121 118 114 114 113 108 98 84 67 52 42 32 26 23 27 42 54 48 39 34 25 9 2 0 6 24 47 49 51 65 76 76 76 89 112 131 144 150 144 133 127 125 122 117 110 98 91 95 103 115 125 123 116 121 135 116 79 58 55 72 99 113 116 112 104 98 89 76 69 73 88
121 122 127 125 117 112 116 123 133 151 156 142 132 133 136 135 138 146 148 150 152 145 133 117 97 80 66 55 46 37 27 27 41 44 36 29 23 20 20 23 31 58 84 83 73 75 76 70 66 74 85 105 125 130 128 125 123 117 108 97 84 71 65 72 86 90 97 114 153 152 145 138 120 97 82 79 86 96 99 94 84 69 44 16 10 13 6
135 139 143 139 136 138 144 153 168 180 167 144 138 140 141 145 161 168 165 180 193 169 143 125 112 103 88 67 55 46 34 28 36 41 36 33 33 34 35 36 40 53 72 77 76 74 68 56 50 52 52 62 88 103 105 110 114 113 108 99 87 76 74 84 110 133 142 146 144 130 117 106 103 95 77 65 62 64 64 63 66 60 46 29 4 290 233
149 153 151 148 149 151 156 166 182 177 147 135 137 142 147 164 186 183 181 209 220 175 145 136 129 118 100 73 57 53 51 51 55 55 52 52 46 34 30 36 38 38 49 62 64 55 48 48 48 41 38 56 86 90 86 87 93 98 105 102 84 68 74 87 96 107 117 119 117 112 103 87 71 68 62 47 48 64 72 69 59 45 191 168 146 155 171
151 148 146 149 154 158 163 174 181 162 143 142 150 159 169 188 201 195 193 208 211 162 145 144 139 128 118 103 80 66 56 60 72 72 66 62 51 31 25 40 48 41 38 41 38 29 26 36 48 49 53 71 85 84 81 82 82 86 103 110 88 68 75 90 89 88 101 106 97 97 112 114 96 76 73 71 48 62 76 57 35 1 300 269 266 250 214
145 145 153 161 165 163 164 169 169 159 153 157 167 177 188 204 214 208 198 200 195 165 154 153 147 139 137 134 117 93 66 66 86 85 52 29 38 50 55 60 63 59 46 31 25 22 18 13 45 81 77 67 65 72 79 85 88 100 120 119 91 74 85 98 90 82 104 117 107 100 113 126 111 47 16 14 26 261 246 255 279 303 294 275 263 255 246
152 159 161 154 149 150 151 151 153 157 162 168 175 184 199 214 218 208 187 178 182 187 177 164 153 148 147 143 136 134 139 132 122 114 56 350 319 269 58 67 74 72 51 26 19 20 15 5 14 67 56 28 30 94 105 99 99 118 143 143 87 80 99 105 88 71 74 86 82 71 66 60 45 287 239 247 248 234 229 239 249 256 254 249 246 249 248